Terminal Aerodrome Forecast
Issued by NWS

Home | Current Version | Previous Version | Text Only | Print | Product List | Glossary On
Versions: 1 2 3 4 5 6 7 8 9 10 11 12 13 14 15 16 17 18 19
351
FTUS43 KAPX 271210 AAA
TAFAPN
TAF AMD
KAPN 271210Z 2712/2812 VRB03KT 1SM BR OVC004
      TEMPO 2712/2714 1/4SM FG
     FM271400 29004KT 4SM BR OVC008
     FM271600 29004KT P6SM OVC015
     FM280900 35005KT P6SM OVC010
     FM281100 36004KT P6SM BKN025=

USA.gov is the U.S. government's official web portal to all federal, state and local government web resources and services.